Location: ?????????
(41.2393°N, 22.9479°E)
Time: 13:09:00
(UTC+00:00)

ISS - Pass Details

Date: 17 November 2025
Orbit: 416 x 421 km, 51.6° (Epoch: 06 December)

Event Time Altitude Azimuth Distance (km) Brightness Sun altitude
Rises 17:11:02 0° 280° (W) 2,364 1.3 -23.2°
Reaches altitude 10° 17:13:37 10° 300° (WNW) 1,500 -0.2 -23.7°
Enters shadow 17:15:25 17° 332° (NNW) 1,142 -1.3 -24.0°
